Location: *
(18.5200°S, 46.4500°E)
Time: 02:34:05
(UTC+00:00)

Cosmos 1420 Rocket - Pass Details

Date: 19 July 2019
Orbit: 754 x 782 km, 74.0° (Epoch: 24 August)

Event Time Altitude Azimuth Distance (km) Brightness Sun altitude
Rises 16:07:41 0° 357° (N) 3,243 7.5 -21.6°
Reaches altitude 10° 16:10:06 10° 2° (N) 2,324 6.6 -22.2°
Enters shadow 16:15:12 55° 76° (ENE) 940 4.1 -23.4°
